Regional Weather Roundup
Issued by NWS

Home | Current Version | Previous Version | Graphics & Text | Print | Product List | Glossary On
Versions: 1 2 3 4 5 6 7 8 9 10 11 12 13 14 15 16 17 18 19 20 21 22 23 24 25 26 27 28 29 30 31 32 33 34 35 36 37 38 39 40 41 42 43 44 45 46 47 48 49 50
000
ASUS44 KMEG 262110
RWRTN
TENNESSEE HOURLY STATE WEATHER ROUNDUP
NATIONAL WEATHER SERVICE MEMPHIS TN
300 PM CST SUN FEB 26 2017

TNZ002-004-019-021-049-052-054-088>092-262200-
WEST TENNESSEE

CITY           SKY/WX    TMP DP  RH WIND       PRES   REMARKS
MEMPHIS INTL   PTSUNNY   61  19  19 S10       30.09F
NWS MEMPHIS      N/A     61 N/A N/A MISG        N/A
JACKSON        MOSUNNY   58  17  20 VRB7      30.10F
UNION CITY     MOSUNNY   55   1  11 CALM      30.09F
PARIS          MOSUNNY   54  16  22 S10       30.11F
HUNTINGDON     MOSUNNY   55  16  21 VRB5G12   30.10F
$$

TNZ008-025-027-028-033-062-065-066-262200-
NORTH MIDDLE TENNESSEE

CITY           SKY/WX    TMP DP  RH WIND       PRES   REMARKS
NASHVILLE      PTSUNNY   54  15  21 S7        30.15F
PORTLAND       SUNNY     54  16  22 SE7G14    30.15S
CLARKSVILLE    SUNNY     54  16  22 E9        30.13F
SMYRNA         SUNNY     54  18  24 SE7       30.16F
COOKEVILLE     SUNNY     54  19  26 SE8       30.14F
GALLATIN       SUNNY     54  16  22 S8        30.18S
CROSSVILLE     SUNNY     49  15  25 SE8       30.16F
$$

TNZ061-075-076-078-094-096-097-262200-
SOUTH MIDDLE TENNESSEE

CITY           SKY/WX    TMP DP  RH WIND       PRES   REMARKS
FAYETTEVILLE   SUNNY     57  18  21 S8        30.14F
TULLAHOMA      SUNNY     55  10  16 S9        30.15F
WINCHESTER     SUNNY     57  19  23 SE8       30.15F
MCMINNVILLE    SUNNY     55  18  22 VRB5      30.15F
COLUMBIA       SUNNY     57  18  21 S3        30.12S
SHELBYVILLE    SUNNY     57  19  23 S8        30.16S
$$

TNZ017-018-042-046-047-262200-
NORTHEAST TENNESSEE

CITY           SKY/WX    TMP DP  RH WIND       PRES   REMARKS
TRI CITIES     MOSUNNY   48  17  29 VRB5      30.19F
ELIZABETHTON   SUNNY     48  18  29 W6        30.18S
$$

TNZ012-013-036-069-073-074-262200-
CENTRAL EAST TENNESSEE

CITY           SKY/WX    TMP DP  RH WIND       PRES   REMARKS
KNOXVILLE      MOSUNNY   51   9  18 CALM      30.19S
OAK RIDGE      SUNNY     52  11  19 CALM      30.21F
GATLINBURG     SUNNY     50  16  25 VRB5      30.18F
MORRISTOWN     SUNNY     48  16  27 CALM      30.18F
JACKSBORO      SUNNY     50  16  25 VRB5      30.22S
$$

TNZ083-085-099-262200-
SOUTHEAST TENNESSEE

CITY           SKY/WX    TMP DP  RH WIND       PRES   REMARKS
CHATTANOOGA    MOSUNNY   55  16  21 CALM      30.20F
$$

SKY/WX REPORTED AS FAIR MEANS FEW OR NO CLOUDS BELOW
12 THOUSAND FEET.





USA.gov is the U.S. government's official web portal to all federal, state and local government web resources and services.